Location: Little Maitland River
(43.8022°N, 81.1549°W)
Time: 23:04:51
(UTC+00:00)

NOAA 12 - Pass Details

Date: 09 December 2025
Orbit: 792 x 813 km, 98.6° (Epoch: 19 January)

Event Time Altitude Azimuth Distance (km) Brightness Sun altitude
Rises 10:40:44 0° 12° (NNE) 3,334 7.3 -22.0°
Reaches altitude 10° 10:43:05 10° 12° (NNE) 2,396 6.6 -21.5°
Maximum altitude 10:48:23 83° 286° (WNW) 814 4.0 -20.6°
Drops below altitude 10° 10:53:37 10° 199° (SSW) 2,365 6.5 -19.7°
Sets 10:55:55 0° 198° (SSW) 3,288 7.2 -19.3°
